www.pogodaiklimat.ru

Погода и климат >> Архив погоды >> Россия >> Ростовская область >> Таганрог


АРХИВ ПОГОДЫ в Таганроге

Время (UTC), дата Ветер
(напр.,м/с)
 
Видим.   Явления Облачность Т
(С)
Тd
(С)
f
(%)
Тe
(С)
Тes
(С)
Комфортность P
(гПа)
Po
(гПа)
Тmin
(С)
Tmax
(С)
R
(мм)
R24
(мм)
S
(см)
21 16.09 ЮЗ 4 20 км ясно +18.7 +13.4 71 +19 +19 тепло 1011.5 1007.7
00 17.09 З 2 20 км ясно +18.6 +12.3 67 +20 +20 тепло 1010.5 1006.7
03 17.09 З 2 20 км ясно +18.0 +14.6 81 +19 +19 тепло 1010.1 1006.3 +17.8
06 17.09 З 3 20 км ясно +21.3 +16.0 72 +25 +28 комфорт 1009.7 1006.0 +17.5
09 17.09 ЮЗ 6-10
{10}
20 км 4/3 600 м
[St Ci fib]
+23.0 +16.3 66 +28 +30 душно 1009.4 1005.7
12 17.09 ЮЗ 5-11
{12}
20 км 8/0
[Ac trans Cc]
+22.4 +16.5 69 +27 +29 душно 1008.1 1004.4
15 17.09 СВ 1
{11}
2000 м гроза, ливневой дождь 10/10 600 м
[Cb cap]
+15.9 +13.8 87 +17 +17 по сезону 1009.2 1005.4 +23.3 1
18 17.09 штиль 0 10 км слаб. ливневой дождь {гроза} 10/10 600 м
[Cb cap]
+16.5 +14.7 89 +16 +16 по сезону 1009.2 1005.4
21 17.09 С 2 20 км зарница {ливн. осадки} 1/1 600 м
[Cb cap]
+15.7 +14.5 93 +16 +16 тепло 1008.9 1005.1
00 18.09 штиль 0 20 км 8/8 1000 м
[Sc]
+13.6 +12.4 92 +13 +13 по сезону 1009.2 1005.4
03 18.09 ЮЗ 1 20 км 9/9 1000 м
[Sc]
+13.8 +12.0 89 +14 +14 по сезону 1009.4 1005.6 +13.4 6
06 18.09 Ю 6 20 км 8/8 1000 м
[Sc]
+18.7 +14.7 78 +19 +19 тепло 1009.1 1005.4
09 18.09 ЮЗ 4
{10}
20 км 9/9 1000 м
[Sc]
+21.6 +15.9 70 +25 +26 комфорт 1007.1 1003.4
12 18.09 ЮЗ 12-19
{19}
20 км гроза без осадков 10/10 600 м
[Cb cap]
+21.9 +16.7 72 +26 +26 душно 1004.7 1001.0
15 18.09 СЗ 4
{19}
20 км {гроза, ливн. осадки} 9/9 600 м
[Cb cap]
+17.2 +10.6 65 +17 +17 по сезону 1007.4 1003.6 +22.7 8
18 18.09 З 4 20 км {гроза, ливн. осадки} 9/9 1000 м
[Sc]
+15.4 +6.2 54 +15 +15 по сезону 1010.9 1007.1
21 18.09 З 2
{10}
20 км 3/3 1000 м
[Sc]
+12.8 +2.2 48 +12 +12 по сезону 1013.9 1010.0
00 19.09 З 2 20 км ясно +10.6 +0.8 51 +10 +10 по сезону 1015.5 1011.6
03 19.09 З 2 20 км ясно +8.9 +2.1 62 +7 +7 холодно 1017.3 1013.4 +8.9 0.3
06 19.09 СЗ 2 20 км ясно +13.8 +3.1 48 +14 +17 по сезону 1019.0 1015.1 +8.9
09 19.09 З 2 20 км 3/3 1000 м
[Cu hum]
+16.3 +2.6 40 +17 +24 по сезону 1019.5 1015.7
12 19.09 ЮЗ 5 20 км 3/3 1000 м
[Cu med, cong]
+17.6 +6.4 48 +17 +19 прохладно 1019.2 1015.3
15 19.09 З 2 20 км ясно +15.5 +6.8 56 +16 +16 по сезону 1019.1 1015.3 +17.8 0.3
18 19.09 ЮЗ 2 20 км 3/0
[Ac trans]
+15.6 +8.5 63 +16 +16 по сезону 1019.6 1015.8
21 19.09 СЗ 2 20 км 3/0
[Ci fib]
+11.9 +7.3 73 +11 +11 по сезону 1019.2 1015.3
00 20.09 СЗ 3 20 км 9/0
[Ci fib]
+11.2 +5.5 68 +10 +10 по сезону 1019.1 1015.2
03 20.09 В 1 20 км 9/0
[Ac As]
+10.4 +2.4 58 +10 +10 по сезону 1018.6 1014.7 +10.4 0.3
06 20.09 С 2 20 км 9/0
[Ac As]
+12.5 +4.9 60 +12 +13 по сезону 1018.2 1014.3 +10.3
09 20.09 СВ 1 20 км 9/0
[Ac As]
+16.2 +0.7 35 +17 +21 по сезону 1017.0 1013.2
12 20.09 Ю 1 20 км 10/10 1000 м
[Sc]
+15.1 +2.9 44 +16 +16 прохладно 1015.8 1012.0
15 20.09 Ю 8-13
{13}
20 км 10/10 1000 м
[Sc]
+14.4 +2.9 46 +12 +12 холодно 1014.9 1011.1 +16.6
18 20.09 Ю 7
{13}
20 км 10/10 1000 м
[Sc]
+11.7 +6.8 72 +9 +9 холодно 1015.9 1012.0
21 20.09 З 1
{11}
20 км в посл. час ливневой дождь 10/10 600 м
[Cb cap]
+12.0 +5.1 63 +12 +12 по сезону 1015.6 1011.7
00 21.09 Ю 8-10
{10}
20 км {ливн. осадки} 9/6 1000 м
[Sc Cs]
+11.6 +8.5 81 +8 +8 прохладно 1015.2 1011.3
03 21.09 СЗ 1
{10}
20 км 1/0
[Ci fib]
+8.5 +4.4 75 +8 +8 прохладно 1015.3 1011.4 +8.5
06 21.09 ЮЗ 1 20 км ясно +12.2 +3.6 56 +12 +17 по сезону 1016.2 1012.3 +8.2
09 21.09 З 2 20 км 4/4 1000 м
[Cu med, cong]
+17.1 +0.3 32 +17 +23 по сезону 1016.1 1012.3
12 21.09 штиль 0
{10}
20 км гроза без осадков {ливн. осадки} 10/10 300 м
[Cb cap]
+13.4 +4.0 53 +13 +13 очень
холодно
1016.3 1012.5
15 21.09 СЗ 3 20 км {гроза} 4/4
[Cb cap]
+13.2 -2.0 35 +12 +12 холодно 1017.1 1013.2 +17.7 0.3
18 21.09 СЗ 1 20 км {гроза} 1/0
[Ci fib]
+8.6 +2.1 64 +8 +8 холодно 1019.4 1015.5
21 21.09 СЗ 1 20 км ясно +8.6 +1.6 61 +8 +8 холодно 1019.6 1015.7
00 22.09 СЗ 3 20 км ясно +7.5 +1.0 63 +5 +5 холодно 1019.5 1015.5
03 22.09 З 2 н/о н/о +8.0 +0.6 60 +6 +6 холодно 1019.0 1015.1 +7.3
06 22.09 З 4-11
{11}
20 км 9/9 600 м
[Sc]
+14.5 +2.1 43 +13 +14 по сезону 1017.2 1013.4
09 22.09 З 6-13
{15}
20 км слаб. ливневой дождь 10/10 300 м
[Cb cap]
+13.8 +7.0 64 +12 +12 холодно 1015.8 1012.0
12 22.09 ЮЗ 5-11
{16}
20 км {ливн. осадки} 9/9 1000 м
[Sc]
+16.1 +9.3 64 +15 +15 холодно 1014.1 1010.3
15 22.09 З 3-10
{13}
20 км 9/9 1000 м
[Sc]
+16.7 +4.5 44 +17 +17 по сезону 1014.1 1010.3 +17.1 0.0
18 22.09 З 2
{11}
20 км 5/4 1000 м
[Sc Ac trans]
+15.2 +8.4 64 +15 +15 по сезону 1014.7 1010.8
21 22.09 З 3 20 км 9/9 1000 м
[Sc]
+15.4 +6.8 56 +15 +15 тепло 1014.3 1010.5
00 23.09 З 3 20 км 9/9 1000 м
[Sc]
+15.7 +6.2 53 +15 +15 тепло 1014.0 1010.2
03 23.09 З 2 20 км 1/0
[Ac trans]
+11.9 +6.0 67 +11 +11 по сезону 1014.3 1010.4 +11.9
06 23.09 З 1 20 км ясно +16.4 +6.1 50 +17 +22 тепло 1015.1 1011.3 +11.2
09 23.09 СВ 2 20 км 9/0
[Ac trans]
+16.9 +6.2 49 +17 +22 по сезону 1015.8 1012.0
12 23.09 С 4-10
{10}
20 км 9/0
[Ac trans]
+13.8 +3.9 51 +13 +14 очень
холодно
1016.8 1012.9
15 23.09 СВ 2
{10}
20 км 10/0
[Ac und]
+10.5 +2.3 57 +9 +9 очень
холодно
1018.3 1014.4 +18.7
18 23.09 В 2 20 км {дождь} 10/10 1000 м
[Sc]
+9.7 +0.3 52 +9 +9 холодно 1019.4 1015.5

 

Местоположение метеостанции Таганрог (Ростовская область, Россия): широта 47.20 долгота 38.90 высота над уровнем моря 32 м.

В архиве по умолчанию представлена погода в Таганроге за последнюю неделю. Архивные данные за месяц целиком и за предыдущие месяцы, начиная с января 2011 года, Вы можете получить, выбрав интересующий диапазон дат из раскрывающегося списка и нажав кнопку "Ввод!".


*Определитесь, кто Вы:
робот инопланетянин человек

Внимание! Время в таблицах - всемирное. Для получения местного времени необходимо прибавить поправку, которая равна 3 ч.

Смотрите также архив погоды в соседних городах и на ближайших метеорологических станциях:

Погода в Маргаритово (Ростовская область, Россия) (30 км)
Погода в Матвеевом Кургане (Ростовская область, Россия) (41 км)
Погода в Ейске (Краснодарский край, Россия) (65 км)
Погода в Ростове-на-Дону (Ростовская область, Россия) (70 км)
Погода в Староминская (Краснодарский край, Россия) (75 км)
Погода в Аэропорту Платов (Ростовская область, Россия) (83 км)
Погода в Кущевской (Краснодарский край, Россия) (92 км)
Погода в Должанке (Краснодарский край, Россия) (106 км)
Погода в Мариуполе (Донецкая область, Украина) (108 км)
Погода в Зерноград (Ростовская область, Россия) (114 км)

Пояснения к столбцам:

Ветер - указаны скорость ветра в м/с - средняя за 10 мин, порывы в срок и между сроками (в фигурных скобках) и направление, откуда дует ветер: С - северный, СВ - северо-восточный, В - восточный, ЮВ - юго-восточный, Ю - южный, ЮЗ - юго-западный, З - западный, СЗ - северо-западный.
Видимость - горизонтальная дальность видимости в метрах или километрах. При видимости от 1 до 10 км при отсутствии осадков обычно наблюдается дымка, при ухудшении видимости до 1 км и менее - туман. В сухую погоду видимость может ухудшаться дымом, пылью или мглою.
Явления - указаны атмосферные явления, наблюдавшиеся в срок или в последний час перед сроком; фигурными скобками обозначены явления, наблюдавшиеся между сроками (за 1-3 часа до срока); квадратными скобками обозначены град или гололедные отложения с указанием их диаметра в мм.
Облачность - указаны через наклонную черту общая и нижняя облачность в баллах и высота нижней границы облаков в метрах; квадратными скобками обозначены формы облаков: Ci - перистые, Cs - перисто-слоистые, Cc - перисто-кучевые, Ac - высококучевые, As - высокослоистые, Sc - слоисто-кучевые, Ns - слоисто-дождевые, Cu - кучевые, Cb - кучево-дождевые. Подробнее классификацию облаков см. в Атласе облаков (PDF).
T - Температура воздуха - температура, измеренная на высоте 2 м над землей.
Td - Температура точки росы - температура, при понижении до которой содержащийся в воздухе водяной пар достигнет насыщения.
f - Относительная влажность воздуха - влажноcть воздуха, измеренная на высоте 2 м над землей.
Te - Эффективная температура - температура, которую ощущает одетый по сезону человек в тени. Характеристика душности погоды. При расчете учитывается влияние влажности воздуха и скорости ветра на теплоощущения человека.
Tes - Эффективная температура на солнце - температура, которую ощущает человек, с поправкой на солнечный нагрев. Характеристика знойности погоды. Зависит от высоты солнца над горизонтом, облачности и скорости ветра. Ночью, в пасмурную погоду, а также при ветре 12 м/с и более поправка равна нулю.
P - Атмосферное давление - приведенное к уровню моря атмосферное давление.
Po - Атмосферное давление - измеренное на уровне метеостанции атмосферное давление.
Tmin - Минимальная температура - минимум температуры воздуха на высоте 2 м над землей.
Tmax - Максимальная температура - максимум температуры воздуха на высоте 2 м над землей.
R - Количество осадков - Количество выпавших осадков за период времени, мм. При наведении курсора мыши на число - период времени, за который выпало указанное количество осадков.
R24 - Количество осадков - Количество выпавших осадков за 24 часа, мм.
S - Снежный покров - Высота снежного покрова, см. При наведении курсора мыши на число - состояние снежного покрова и степень покрытия местности в баллах.